sat.trackr.live / text

‹ back to catalog

YAOGAN-42 02

NORAD 59557 · 2024-075A

PAYLOAD ACTIVE UNKNOWN

§ Identity

Operator
Country
PRC
Launch date
2024-04-20
Launch site
XICLF
Launch vehicle
Mass (kg)
RCS (m²)

External: N2YO · Heavens-Above · Gunter

§ Orbital elements

Epoch: 2026-09-22T13:59:34.999008Z

Period
94.57 min
Inclination
35.0020°
Eccentricity
0.0005172
Mean motion
15.22718315 rev/d
Perigee alt
494.1 km
Apogee alt
501.2 km
Semi-major
6,875.8 km
B*
2.7067e-4
RAAN
17.0874°
Arg perigee
323.4277°
Mean anomaly
36.6084°
Rev number
13,494

§ Raw data

YAOGAN-42 021 59557U 24075A   26265.58304397  .00006437  00000+0  27067-3 0  99932 59557  35.0020  17.0874 0005172 323.4277  36.6084 15.22718315134946

JSON: /api/v1/satellites/59557 · /tle

For live sub-satellite position, see the globe view (requires WebGL).

§ Visibility from observer

Set your observer location to see the next 7 days of passes ≥ 10°. The values pass through the URL so the page stays shareable.

No JS? Fill the form by hand. The geolocation button needs JavaScript.